| time (UTC) | temp F | wind direction | speed MPH | gust MPH | rain 1hr in | rain 24hr in | rain mn in | humidity % | barometer mb |
| 20260906142523 | 83 | 0 | 0.0 | 2.0 | 0.00 | 0.00 | 0.00 | 65 | 1015.9 |
| 20260906142019 | 83 | 145 | 0.0 | 2.0 | 0.00 | 0.00 | 0.00 | 67 | 1016.0 |
| 20260906141021 | 82 | 0 | 0.0 | 3.0 | 0.00 | 0.00 | 0.00 | 71 | 1016.0 |
| 20260906140521 | 81 | 0 | 0.0 | 3.0 | 0.00 | 0.00 | 0.00 | 71 | 1016.0 |
| 20260906140044 | 81 | 145 | 1.0 | 3.0 | 0.00 | 0.00 | 0.00 | 72 | 1016.0 |
| 20260906135518 | 80 | 0 | 0.0 | 4.0 | 0.00 | 0.00 | 0.00 | 73 | 1016.0 |
| 20260906135018 | 80 | 128 | 1.0 | 4.0 | 0.00 | 0.00 | 0.00 | 74 | 1016.0 |
| 20260906134017 | 79 | 0 | 0.0 | 3.0 | 0.00 | 0.00 | 0.00 | 76 | 1015.8 |
| 20260906132520 | 77 | 126 | 0.0 | 4.0 | 0.00 | 0.00 | 0.00 | 79 | 1015.8 |
| 20260906132019 | 76 | 144 | 0.0 | 3.0 | 0.00 | 0.00 | 0.00 | 80 | 1015.7 |
| 20260906131540 | 76 | 0 | 0.0 | 3.0 | 0.00 | 0.00 | 0.00 | 82 | 1015.7 |
| 20260906131020 | 75 | 0 | 0.0 | 3.0 | 0.00 | 0.00 | 0.00 | 82 | 1015.8 |
| 20260906130523 | 75 | 144 | 0.0 | 1.0 | 0.00 | 0.00 | 0.00 | 83 | 1015.8 |
| 20260906130046 | 74 | 0 | 0.0 | 1.0 | 0.00 | 0.00 | 0.00 | 84 | 1015.7 |
| 20260906125517 | 74 | 0 | 0.0 | 1.0 | 0.00 | 0.00 | 0.00 | 84 | 1015.5 |
| 20260906125020 | 74 | 144 | 0.0 | 1.0 | 0.00 | 0.00 | 0.00 | 84 | 1015.5 |
| 20260906124544 | 73 | 0 | 0.0 | 1.0 | 0.00 | 0.00 | 0.00 | 85 | 1015.5 |
| 20260906123042 | 73 | 0 | 0.0 | 0.0 | 0.00 | 0.00 | 0.00 | 85 | 1015.2 |
| 20260906122020 | 72 | 0 | 0.0 | 1.0 | 0.00 | 0.00 | 0.00 | 85 | 1015.1 |
| 20260906121539 | 73 | 0 | 0.0 | 1.0 | 0.00 | 0.00 | 0.00 | 84 | 1015.0 |
| 20260906120523 | 73 | 0 | 0.0 | 2.0 | 0.00 | 0.00 | 0.00 | 84 | 1014.8 |
| 20260906120045 | 72 | 0 | 0.0 | 2.0 | 0.00 | 0.00 | 0.00 | 85 | 1014.9 |
| 20260906114539 | 71 | 0 | 0.0 | 0.0 | 0.00 | 0.00 | 0.00 | 84 | 1014.6 |
| 20260906113042 | 72 | 0 | 0.0 | 0.0 | 0.00 | 0.00 | 0.00 | 84 | 1014.5 |
| 20260906112018 | 72 | 0 | 0.0 | 0.0 | 0.00 | 0.00 | 0.00 | 85 | 1014.4 |
| 20260906111551 | 72 | 0 | 0.0 | 0.0 | 0.00 | 0.00 | 0.00 | 84 | 1014.4 |
| 20260906111017 | 72 | 0 | 0.0 | 0.0 | 0.00 | 0.00 | 0.00 | 83 | 1014.4 |
| 20260906110520 | 72 | 0 | 0.0 | 0.0 | 0.00 | 0.00 | 0.00 | 83 | 1014.3 |
| 20260906110051 | 72 | 0 | 0.0 | 0.0 | 0.00 | 0.00 | 0.00 | 84 | 1014.3 |
| 20260906104540 | 73 | 0 | 0.0 | 0.0 | 0.00 | 0.00 | 0.00 | 83 | 1014.2 |
| 20260906103039 | 73 | 0 | 0.0 | 0.0 | 0.00 | 0.00 | 0.00 | 81 | 1014.1 |
| 20260906102520 | 73 | 0 | 0.0 | 0.0 | 0.00 | 0.00 | 0.00 | 80 | 1014.0 |
| 20260906101538 | 73 | 0 | 0.0 | 0.0 | 0.00 | 0.00 | 0.00 | 81 | 1014.1 |
| 20260906101017 | 73 | 0 | 0.0 | 0.0 | 0.00 | 0.00 | 0.00 | 81 | 1014.0 |
| 20260906100521 | 73 | 0 | 0.0 | 0.0 | 0.00 | 0.00 | 0.00 | 82 | 1014.0 |
| 20260906100036 | 73 | 0 | 0.0 | 0.0 | 0.00 | 0.00 | 0.00 | 81 | 1014.0 |
| 20260906095516 | 73 | 0 | 0.0 | 0.0 | 0.00 | 0.00 | 0.00 | 80 | 1014.0 |
| 20260906095018 | 74 | 0 | 0.0 | 0.0 | 0.00 | 0.00 | 0.00 | 79 | 1014.1 |
| 20260906094539 | 74 | 0 | 0.0 | 0.0 | 0.00 | 0.00 | 0.00 | 80 | 1014.1 |
| 20260906092517 | 74 | 0 | 0.0 | 0.0 | 0.00 | 0.00 | 0.00 | 79 | 1014.0 |
| 20260906092017 | 74 | 0 | 0.0 | 0.0 | 0.00 | 0.00 | 0.00 | 79 | 1013.9 |
| 20260906091538 | 74 | 0 | 0.0 | 0.0 | 0.00 | 0.00 | 0.00 | 79 | 1013.8 |
| 20260906091016 | 75 | 0 | 0.0 | 0.0 | 0.00 | 0.00 | 0.00 | 78 | 1013.7 |
| 20260906090515 | 75 | 0 | 0.0 | 0.0 | 0.00 | 0.00 | 0.00 | 78 | 1013.8 |
| 20260906085019 | 76 | 0 | 0.0 | 0.0 | 0.00 | 0.00 | 0.00 | 76 | 1013.8 |
| 20260906084018 | 76 | 0 | 0.0 | 0.0 | 0.00 | 0.00 | 0.00 | 76 | 1013.8 |
| 20260906083517 | 76 | 0 | 0.0 | 0.0 | 0.00 | 0.00 | 0.00 | 76 | 1013.9 |
| 20260906083042 | 76 | 0 | 0.0 | 0.0 | 0.00 | 0.00 | 0.00 | 76 | 1014.0 |
| 20260906082516 | 76 | 0 | 0.0 | 0.0 | 0.00 | 0.00 | 0.00 | 76 | 1013.8 |
| 20260906082017 | 76 | 0 | 0.0 | 0.0 | 0.00 | 0.00 | 0.00 | 76 | 1013.9 |
| 20260906081537 | 76 | 0 | 0.0 | 0.0 | 0.00 | 0.00 | 0.00 | 74 | 1013.9 |
| 20260906081020 | 77 | 0 | 0.0 | 0.0 | 0.00 | 0.00 | 0.00 | 74 | 1013.9 |
| 20260906075519 | 77 | 0 | 0.0 | 0.0 | 0.00 | 0.00 | 0.00 | 73 | 1013.7 |
| 20260906075018 | 78 | 0 | 0.0 | 2.0 | 0.00 | 0.00 | 0.00 | 72 | 1013.7 |
| 20260906074021 | 78 | 0 | 0.0 | 4.0 | 0.00 | 0.00 | 0.00 | 72 | 1013.9 |
| 20260906073518 | 78 | 0 | 0.0 | 4.0 | 0.00 | 0.00 | 0.00 | 72 | 1013.9 |
| 20260906073038 | 78 | 142 | 0.0 | 3.0 | 0.00 | 0.00 | 0.00 | 71 | 1013.9 |
| 20260906072518 | 79 | 147 | 1.0 | 4.0 | 0.00 | 0.00 | 0.00 | 71 | 1013.9 |
| 20260906072017 | 79 | 161 | 2.0 | 5.0 | 0.00 | 0.00 | 0.00 | 70 | 1014.0 |
| 20260906071537 | 79 | 161 | 1.0 | 5.0 | 0.00 | 0.00 | 0.00 | 70 | 1014.0 |
| 20260906071016 | 79 | 152 | 2.0 | 6.0 | 0.00 | 0.00 | 0.00 | 70 | 1014.1 |
| 20260906070041 | 79 | 0 | 1.0 | 5.0 | 0.00 | 0.00 | 0.00 | 69 | 1014.1 |
| 20260906065524 | 80 | 161 | 1.0 | 5.0 | 0.00 | 0.00 | 0.00 | 68 | 1014.2 |
| 20260906065021 | 80 | 155 | 2.0 | 5.0 | 0.00 | 0.00 | 0.00 | 68 | 1014.3 |
| 20260906064536 | 80 | 170 | 2.0 | 6.0 | 0.00 | 0.00 | 0.00 | 68 | 1014.3 |
| 20260906063040 | 80 | 159 | 1.0 | 4.0 | 0.00 | 0.00 | 0.00 | 67 | 1014.4 |
| 20260906061547 | 80 | 166 | 1.0 | 5.0 | 0.00 | 0.00 | 0.00 | 67 | 1014.9 |
| 20260906061020 | 80 | 156 | 1.0 | 5.0 | 0.00 | 0.00 | 0.00 | 67 | 1014.9 |
| 20260906060518 | 80 | 150 | 1.0 | 4.0 | 0.00 | 0.00 | 0.00 | 67 | 1014.8 |
| 20260906060042 | 80 | 0 | 0.0 | 3.0 | 0.00 | 0.00 | 0.00 | 66 | 1014.7 |
| 20260906055517 | 80 | 0 | 0.0 | 3.0 | 0.00 | 0.00 | 0.00 | 66 | 1014.7 |
| 20260906054544 | 81 | 0 | 0.0 | 3.0 | 0.00 | 0.00 | 0.00 | 65 | 1014.6 |
| 20260906053042 | 81 | 173 | 1.0 | 7.0 | 0.00 | 0.00 | 0.00 | 65 | 1014.5 |
| 20260906051540 | 81 | 171 | 1.0 | 4.0 | 0.00 | 0.00 | 0.00 | 65 | 1014.7 |
| 20260906051018 | 81 | 167 | 1.0 | 4.0 | 0.00 | 0.00 | 0.00 | 65 | 1014.6 |
| 20260906050519 | 81 | 130 | 1.0 | 6.0 | 0.00 | 0.00 | 0.00 | 65 | 1014.6 |
| 20260906050044 | 82 | 159 | 1.0 | 6.0 | 0.00 | 0.00 | 0.00 | 65 | 1014.7 |
| 20260906044540 | 82 | 148 | 1.0 | 5.0 | 0.00 | 0.00 | 0.00 | 64 | 1014.7 |
| 20260906043038 | 83 | 149 | 1.0 | 4.0 | 0.00 | 0.00 | 0.00 | 63 | 1014.8 |
| 20260906042520 | 83 | 159 | 1.0 | 5.0 | 0.00 | 0.00 | 0.00 | 63 | 1014.6 |
| 20260906042020 | 83 | 171 | 1.0 | 5.0 | 0.00 | 0.00 | 0.00 | 63 | 1014.6 |
| 20260906041548 | 83 | 158 | 1.0 | 5.0 | 0.00 | 0.00 | 0.00 | 63 | 1014.7 |
| 20260906041021 | 83 | 164 | 1.0 | 5.0 | 0.00 | 0.00 | 0.00 | 63 | 1014.6 |
| 20260906040042 | 83 | 126 | 1.0 | 4.0 | 0.00 | 0.00 | 0.00 | 62 | 1014.4 |
| 20260906034544 | 84 | 114 | 2.0 | 7.0 | 0.00 | 0.00 | 0.00 | 62 | 1014.4 |
| 20260906034023 | 84 | 156 | 2.0 | 7.0 | 0.00 | 0.00 | 0.00 | 61 | 1014.2 |
| 20260906033517 | 84 | 120 | 2.0 | 7.0 | 0.00 | 0.00 | 0.00 | 61 | 1014.3 |
| 20260906033036 | 84 | 115 | 3.0 | 7.0 | 0.00 | 0.00 | 0.00 | 61 | 1014.3 |
| 20260906032519 | 84 | 142 | 2.0 | 9.0 | 0.00 | 0.00 | 0.00 | 60 | 1014.3 |
| 20260906032020 | 85 | 127 | 3.0 | 10.0 | 0.00 | 0.00 | 0.00 | 60 | 1014.2 |
| 20260906031540 | 85 | 146 | 4.0 | 10.0 | 0.00 | 0.00 | 0.00 | 60 | 1014.1 |
| 20260906031016 | 85 | 119 | 3.0 | 10.0 | 0.00 | 0.00 | 0.00 | 59 | 1014.1 |
| 20260906030048 | 85 | 120 | 4.0 | 10.0 | 0.00 | 0.00 | 0.00 | 58 | 1014.0 |
| 20260906024537 | 86 | 158 | 3.0 | 12.0 | 0.00 | 0.00 | 0.00 | 56 | 1013.8 |
| 20260906024020 | 86 | 130 | 3.0 | 9.0 | 0.00 | 0.00 | 0.00 | 55 | 1013.7 |
| 20260906023520 | 86 | 117 | 4.0 | 10.0 | 0.00 | 0.00 | 0.00 | 54 | 1013.7 |
| 20260906023038 | 86 | 153 | 4.0 | 10.0 | 0.00 | 0.00 | 0.00 | 53 | 1013.6 |
| 20260906022517 | 86 | 144 | 4.0 | 8.0 | 0.00 | 0.00 | 0.00 | 52 | 1013.5 |
| 20260906022017 | 86 | 130 | 3.0 | 7.0 | 0.00 | 0.00 | 0.00 | 53 | 1013.4 |
| 20260906021539 | 84 | 100 | 1.0 | 6.0 | 0.00 | 0.00 | 0.00 | 53 | 1013.4 |
| 20260906021020 | 84 | 121 | 0.0 | 2.0 | 0.00 | 0.00 | 0.00 | 53 | 1013.3 |
| 20260906020042 | 85 | 0 | 0.0 | 3.0 | 0.00 | 0.00 | 0.00 | 52 | 1013.2 |
| 20260906014545 | 85 | 0 | 0.0 | 1.0 | 0.00 | 0.00 | 0.00 | 51 | 1013.0 |
| 20260906014020 | 86 | 0 | 0.0 | 1.0 | 0.00 | 0.00 | 0.00 | 51 | 1012.9 |
| 20260906013526 | 86 | 0 | 0.0 | 1.0 | 0.00 | 0.00 | 0.00 | 51 | 1012.8 |
| 20260906013036 | 86 | 0 | 0.0 | 2.0 | 0.00 | 0.00 | 0.00 | 50 | 1012.8 |
| 20260906011552 | 87 | 0 | 0.0 | 3.0 | 0.00 | 0.00 | 0.00 | 49 | 1012.7 |
| 20260906010524 | 87 | 0 | 0.0 | 1.0 | 0.00 | 0.00 | 0.00 | 48 | 1012.7 |
| 20260906010100 | 88 | 0 | 0.0 | 1.0 | 0.00 | 0.00 | 0.00 | 48 | 1012.7 |
| 20260906005517 | 88 | 0 | 0.0 | 1.0 | 0.00 | 0.00 | 0.00 | 47 | 1012.7 |
| 20260906005021 | 89 | 0 | 0.0 | 5.0 | 0.00 | 0.00 | 0.00 | 46 | 1012.6 |
| 20260906004545 | 90 | 0 | 0.0 | 5.0 | 0.00 | 0.00 | 0.00 | 45 | 1012.5 |
| 20260906003045 | 92 | 71 | 0.0 | 6.0 | 0.00 | 0.00 | 0.00 | 42 | 1012.4 |
| 20260906002018 | 93 | 126 | 2.0 | 8.0 | 0.00 | 0.00 | 0.00 | 41 | 1012.4 |
| 20260906001558 | 93 | 119 | 3.0 | 8.0 | 0.00 | 0.00 | 0.00 | 41 | 1012.3 |
| 20260906001022 | 93 | 101 | 1.0 | 8.0 | 0.00 | 0.00 | 0.00 | 40 | 1012.2 |
| 20260906000520 | 94 | 130 | 3.0 | 8.0 | 0.00 | 0.00 | 0.00 | 40 | 1012.1 |
| 20260906000039 | 94 | 101 | 3.0 | 8.0 | 0.00 | 0.00 | 0.00 | 39 | 1012.1 |
| 20260905235519 | 94 | 154 | 2.0 | 10.0 | 0.00 | 0.00 | 0.00 | 39 | 1012.3 |
| 20260905235022 | 95 | 117 | 2.0 | 10.0 | 0.00 | 0.00 | 0.00 | 39 | 1012.2 |
| 20260905234541 | 95 | 140 | 3.0 | 10.0 | 0.00 | 0.00 | 0.00 | 38 | 1012.2 |
| 20260905232522 | 97 | 114 | 2.0 | 9.0 | 0.00 | 0.00 | 0.00 | 36 | 1012.1 |
| 20260905231544 | 98 | 92 | 1.0 | 7.0 | 0.00 | 0.00 | 0.00 | 35 | 1012.0 |
| 20260905231020 | 97 | 130 | 3.0 | 7.0 | 0.00 | 0.00 | 0.00 | 35 | 1012.0 |
| 20260905230517 | 97 | 0 | 2.0 | 7.0 | 0.00 | 0.00 | 0.00 | 35 | 1012.1 |
| 20260905230044 | 98 | 139 | 1.0 | 6.0 | 0.00 | 0.00 | 0.00 | 35 | 1012.1 |
| 20260905224543 | 97 | 133 | 2.0 | 8.0 | 0.00 | 0.00 | 0.00 | 35 | 1012.1 |
| 20260905224021 | 98 | 140 | 3.0 | 8.0 | 0.00 | 0.00 | 0.00 | 34 | 1012.1 |
| 20260905223518 | 97 | 171 | 3.0 | 10.0 | 0.00 | 0.00 | 0.00 | 35 | 1012.1 |
| 20260905223040 | 97 | 143 | 4.0 | 10.0 | 0.00 | 0.00 | 0.00 | 35 | 1012.0 |
| 20260905222517 | 98 | 67 | 0.0 | 4.0 | 0.00 | 0.00 | 0.00 | 34 | 1012.1 |
| 20260905221541 | 99 | 101 | 1.0 | 9.0 | 0.00 | 0.00 | 0.00 | 33 | 1012.3 |
| 20260905221022 | 100 | 86 | 2.0 | 9.0 | 0.00 | 0.00 | 0.00 | 32 | 1012.4 |
| 20260905220520 | 101 | 165 | 1.0 | 9.0 | 0.00 | 0.00 | 0.00 | 32 | 1012.4 |
| 20260905220039 | 100 | 150 | 2.0 | 10.0 | 0.00 | 0.00 | 0.00 | 32 | 1012.4 |
| 20260905215519 | 99 | 104 | 3.0 | 10.0 | 0.00 | 0.00 | 0.00 | 34 | 1012.4 |
| 20260905215016 | 98 | 88 | 2.0 | 8.0 | 0.00 | 0.00 | 0.00 | 34 | 1012.5 |
| 20260905214538 | 98 | 250 | 2.0 | 5.0 | 0.00 | 0.00 | 0.00 | 33 | 1012.5 |
| 20260905213520 | 98 | 217 | 2.0 | 9.0 | 0.00 | 0.00 | 0.00 | 33 | 1012.5 |
| 20260905213050 | 98 | 162 | 1.0 | 9.0 | 0.00 | 0.00 | 0.00 | 33 | 1012.6 |
| 20260905212520 | 99 | 103 | 2.0 | 7.0 | 0.00 | 0.00 | 0.00 | 32 | 1012.7 |
| 20260905212019 | 98 | 128 | 1.0 | 7.0 | 0.00 | 0.00 | 0.00 | 34 | 1012.8 |
| 20260905211545 | 99 | 107 | 3.0 | 7.0 | 0.00 | 0.00 | 0.00 | 34 | 1012.7 |
| 20260905211020 | 99 | 166 | 3.0 | 9.0 | 0.00 | 0.00 | 0.00 | 33 | 1012.6 |
| 20260905210518 | 98 | 153 | 0.0 | 9.0 | 0.00 | 0.00 | 0.00 | 34 | 1012.8 |
| 20260905210039 | 98 | 79 | 3.0 | 11.0 | 0.00 | 0.00 | 0.00 | 34 | 1012.8 |
| 20260905205518 | 99 | 127 | 5.0 | 11.0 | 0.00 | 0.00 | 0.00 | 33 | 1012.9 |
| 20260905205017 | 100 | 150 | 2.0 | 6.0 | 0.00 | 0.00 | 0.00 | 31 | 1012.9 |
| 20260905203051 | 100 | 207 | 3.0 | 8.0 | 0.00 | 0.00 | 0.00 | 32 | 1013.4 |
| 20260905202526 | 99 | 69 | 2.0 | 8.0 | 0.00 | 0.00 | 0.00 | 33 | 1013.4 |
| 20260905202020 | 99 | 206 | 2.0 | 7.0 | 0.00 | 0.00 | 0.00 | 33 | 1013.5 |
| 20260905201553 | 97 | 117 | 1.0 | 12.0 | 0.00 | 0.00 | 0.00 | 34 | 1013.5 |
| 20260905201019 | 99 | 300 | 3.0 | 12.0 | 0.00 | 0.00 | 0.00 | 32 | 1013.5 |
| 20260905200520 | 99 | 137 | 3.0 | 10.0 | 0.00 | 0.00 | 0.00 | 33 | 1013.7 |
| 20260905200038 | 100 | 184 | 3.0 | 9.0 | 0.00 | 0.00 | 0.00 | 32 | 1013.8 |
| 20260905195517 | 99 | 209 | 3.0 | 8.0 | 0.00 | 0.00 | 0.00 | 33 | 1013.8 |
| 20260905195021 | 98 | 132 | 1.0 | 6.0 | 0.00 | 0.00 | 0.00 | 34 | 1014.0 |
| 20260905194538 | 98 | 45 | 2.0 | 6.0 | 0.00 | 0.00 | 0.00 | 33 | 1014.0 |
| 20260905194019 | 97 | 128 | 3.0 | 9.0 | 0.00 | 0.00 | 0.00 | 33 | 1014.1 |
| 20260905193040 | 99 | 193 | 3.0 | 8.0 | 0.00 | 0.00 | 0.00 | 33 | 1014.3 |
| 20260905192020 | 99 | 88 | 3.0 | 13.0 | 0.00 | 0.00 | 0.00 | 32 | 1014.3 |
| 20260905191536 | 97 | 120 | 2.0 | 13.0 | 0.00 | 0.00 | 0.00 | 34 | 1014.4 |
| 20260905191020 | 99 | 152 | 3.0 | 10.0 | 0.00 | 0.00 | 0.00 | 32 | 1014.6 |
| 20260905190517 | 99 | 70 | 4.0 | 10.0 | 0.00 | 0.00 | 0.00 | 32 | 1014.7 |
| 20260905190040 | 99 | 137 | 4.0 | 8.0 | 0.00 | 0.00 | 0.00 | 34 | 1014.7 |
| 20260905185517 | 97 | 236 | 1.0 | 10.0 | 0.00 | 0.00 | 0.00 | 33 | 1014.7 |
| 20260905185018 | 97 | 180 | 3.0 | 11.0 | 0.00 | 0.00 | 0.00 | 33 | 1015.0 |
| 20260905184546 | 98 | 204 | 3.0 | 11.0 | 0.00 | 0.00 | 0.00 | 34 | 1015.0 |
| 20260905184019 | 97 | 209 | 5.0 | 10.0 | 0.00 | 0.00 | 0.00 | 34 | 1015.1 |
| 20260905183053 | 97 | 211 | 4.0 | 10.0 | 0.00 | 0.00 | 0.00 | 35 | 1015.2 |
| 20260905182523 | 95 | 328 | 2.0 | 7.0 | 0.00 | 0.00 | 0.00 | 37 | 1015.3 |
| 20260905182022 | 97 | 100 | 3.0 | 7.0 | 0.00 | 0.00 | 0.00 | 35 | 1015.4 |
| 20260905181539 | 97 | 161 | 3.0 | 9.0 | 0.00 | 0.00 | 0.00 | 36 | 1015.5 |
| 20260905181018 | 96 | 226 | 3.0 | 9.0 | 0.00 | 0.00 | 0.00 | 36 | 1015.6 |
| 20260905175520 | 97 | 238 | 2.0 | 9.0 | 0.00 | 0.00 | 0.00 | 36 | 1015.9 |
| 20260905175020 | 97 | 180 | 3.0 | 11.0 | 0.00 | 0.00 | 0.00 | 36 | 1015.9 |
| 20260905174540 | 96 | 126 | 5.0 | 11.0 | 0.00 | 0.00 | 0.00 | 37 | 1015.9 |
| 20260905174020 | 96 | 165 | 1.0 | 5.0 | 0.00 | 0.00 | 0.00 | 38 | 1016.0 |
| 20260905173517 | 94 | 109 | 2.0 | 7.0 | 0.00 | 0.00 | 0.00 | 39 | 1016.0 |
| 20260905173037 | 94 | 309 | 2.0 | 7.0 | 0.00 | 0.00 | 0.00 | 37 | 1016.1 |
| 20260905172516 | 97 | 173 | 2.0 | 7.0 | 0.00 | 0.00 | 0.00 | 37 | 1016.2 |
| 20260905172019 | 96 | 161 | 2.0 | 8.0 | 0.00 | 0.00 | 0.00 | 38 | 1016.2 |
| 20260905165020 | 94 | 82 | 3.0 | 10.0 | 0.00 | 0.00 | 0.00 | 40 | 1016.4 |
| 20260905164539 | 94 | 136 | 4.0 | 10.0 | 0.00 | 0.00 | 0.00 | 41 | 1016.4 |
| 20260905164018 | 92 | 151 | 1.0 | 8.0 | 0.00 | 0.00 | 0.00 | 43 | 1016.4 |
| 20260905163523 | 93 | 0 | 2.0 | 10.0 | 0.00 | 0.00 | 0.00 | 42 | 1016.4 |
| 20260905161540 | 92 | 148 | 2.0 | 8.0 | 0.00 | 0.00 | 0.00 | 43 | 1016.4 |
| 20260905161021 | 92 | 144 | 2.0 | 7.0 | 0.00 | 0.00 | 0.00 | 45 | 1016.3 |
| 20260905160521 | 91 | 187 | 2.0 | 7.0 | 0.00 | 0.00 | 0.00 | 45 | 1016.3 |
| 20260905160040 | 91 | 134 | 2.0 | 8.0 | 0.00 | 0.00 | 0.00 | 44 | 1016.3 |
| 20260905155519 | 91 | 141 | 3.0 | 8.0 | 0.00 | 0.00 | 0.00 | 44 | 1016.3 |
| 20260905155020 | 91 | 221 | 2.0 | 6.0 | 0.00 | 0.00 | 0.00 | 43 | 1016.2 |
| 20260905154538 | 90 | 200 | 2.0 | 7.0 | 0.00 | 0.00 | 0.00 | 46 | 1016.3 |
| 20260905152518 | 88 | 238 | 1.0 | 4.0 | 0.00 | 0.00 | 0.00 | 50 | 1016.2 |
| 20260905152018 | 88 | 194 | 1.0 | 6.0 | 0.00 | 0.00 | 0.00 | 49 | 1016.3 |
| 20260905151539 | 87 | 232 | 2.0 | 6.0 | 0.00 | 0.00 | 0.00 | 52 | 1016.2 |
| 20260905151020 | 87 | 244 | 3.0 | 7.0 | 0.00 | 0.00 | 0.00 | 50 | 1016.2 |
| 20260905150517 | 87 | 222 | 2.0 | 7.0 | 0.00 | 0.00 | 0.00 | 52 | 1016.2 |
| 20260905150039 | 86 | 235 | 2.0 | 6.0 | 0.00 | 0.00 | 0.00 | 56 | 1016.2 |
| 20260905145516 | 85 | 233 | 3.0 | 6.0 | 0.00 | 0.00 | 0.00 | 59 | 1016.2 |